Wind_Speed
25 24 24 25 25 25 26 26 26 27 27 28 28 29 29 30 31 32 32 32 33 33 34 34 34 34 34 35 35 36 36 37 37 38 37 37 37 36 35 35 35 35 35
25 25 26 26 26 26 27 27 28 28 28 28 29 30 31 31 32 33 33 33 34 34 35 35 36 36 37 37 37 38 38 39 39 39 39 38 38 38 37 36 36 36 37
26 27 27 28 28 28 28 29 29 30 30 30 31 31 31 32 32 32 33 34 35 36 36 37 37 37 38 38 39 39 39 39 39 39 39 40 40 40 39 39 38 38 38
28 28 29 29 29 29 30 30 30 31 31 31 31 32 32 32 33 33 34 35 36 37 37 38 38 38 38 39 39 40 40 40 40 40 40 41 41 42 41 41 40 40 39
29 30 30 31 31 32 32 32 32 32 32 32 33 33 34 34 34 34 35 36 37 37 38 38 38 39 39 39 39 40 40 41 41 41 42 42 42 42 42 42 42 41 41
29 30 31 32 32 32 33 33 33 34 34 34 34 34 34 35 36 36 37 37 37 38 38 38 39 39 39 39 40 40 41 41 42 42 43 44 44 43 43 43 43 42 42
31 32 33 33 33 33 34 35 35 35 35 35 35 35 35 35 35 36 37 38 38 38 38 38 39 39 39 40 40 41 41 42 42 43 43 43 43 43 43 43 43 43 43
31 32 33 33 34 33 33 34 35 36 36 36 36 36 36 36 37 37 38 38 38 38 39 39 39 39 40 40 40 40 41 41 42 43 42 42 42 42 42 42 42 42 42
33 33 33 34 34 34 35 34 34 35 35 36 37 37 37 37 37 38 38 38 38 39 40 40 40 40 40 40 40 40 41 41 41 40 40 40 41 41 41 41 41 42 42
34 33 34 35 34 34 35 35 35 35 36 37 38 39 39 38 38 38 38 39 40 40 40 40 39 39 40 39 39 39 40 40 40 39 39 40 40 40 40 39 39 40 41
36 35 35 35 35 36 37 37 36 36 37 37 38 38 39 39 39 39 39 40 40 40 40 40 40 40 40 40 40 40 39 39 39 39 40 39 40 40 40 40 40 40 41
37 37 36 36 36 37 37 37 37 37 38 38 39 39 39 39 39 39 39 39 39 40 39 39 40 41 41 41 42 41 40 39 40 41 41 40 40 40 40 40 41 41 42
38 38 38 38 37 37 37 36 36 36 37 37 38 39 39 39 39 39 39 39 39 39 39 39 39 40 41 42 42 41 41 41 41 41 41 41 41 41 41 41 42 43 43
38 38 38 38 38 38 37 36 37 37 37 37 37 38 39 39 39 39 39 40 40 39 39 40 41 41 42 42 42 42 42 42 42 42 42 42 42 42 42 42 43 43 43
39 38 38 38 38 39 39 39 39 38 38 39 40 40 40 40 40 40 40 41 41 41 41 41 42 42 43 43 43 43 43 43 43 43 44 44 44 44 44 43 43 44 44
39 39 40 40 40 40 40 41 40 40 40 41 41 42 42 41 41 41 42 42 42 43 42 42 43 43 43 43 43 44 44 44 44 44 45 45 46 45 45 44 44 45 46
39 40 40 41 41 41 42 42 43 43 43 43 43 43 43 43 43 43 43 44 44 44 44 43 43 44 44 43 43 44 44 44 45 45 46 46 46 46 46 46 46 46 46
40 40 41 41 41 42 42 43 44 44 45 45 45 44 44 44 44 44 45 46 46 45 45 44 43 43 43 43 43 43 43 44 45 46 46 47 47 48 47 47 47 47 47
41 41 42 42 42 43 43 44 44 45 45 45 45 45 44 44 45 45 46 46 46 45 45 44 43 42 42 43 43 44 44 44 44 45 46 46 47 48 48 47 47 47 47
42 42 43 43 43 43 44 44 45 45 45 45 45 45 45 45 46 46 46 45 46 45 45 45 44 43 43 43 44 44 45 45 44 44 45 45 46 47 47 47 47 47 47
43 43 43 44 44 45 45 45 46 46 46 46 46 46 46 46 47 47 46 46 46 46 46 45 45 45 44 44 44 44 45 46 46 46 46 46 46 47 47 47 48 48 48
45 45 45 46 46 47 47 47 47 47 48 48 48 47 47 47 47 47 47 47 47 47 47 46 45 45 45 46 45 45 45 45 45 46 46 46 47 47 47 47 48 48 48
46 47 47 48 48 48 48 48 49 49 49 49 48 48 48 48 48 48 48 47 47 48 47 47 46 45 46 46 45 45 45 45 45 45 45 45 46 46 46 47 47 48 48
48 48 48 48 49 49 50 50 51 50 50 49 49 49 48 48 48 48 48 48 48 47 47 46 46 46 46 45 44 44 44 44 44 44 44 44 45 45 45 46 47 47 47
49 49 49 50 50 50 51 51 51 51 50 49 49 49 49 49 49 48 48 48 47 46 46 46 45 45 44 44 43 43 43 43 43 44 45 44 44 44 44 44 45 45 45
50 50 50 51 51 51 51 51 51 51 50 49 49 49 49 49 48 48 47 47 46 46 46 46 45 45 44 43 43 43 43 44 44 43 44 44 44 44 43 43 44 44 44
Wind_Direction
272 272 273 275 277 279 280 281 283 284 284 285 285 285 284 284 284 283 282 282 281 281 280 280 280 280 279 279 279 278 278 278 278 278 277 277 278 278 279 279 279 278 278
272 272 274 275 277 279 280 282 282 284 285 286 286 287 285 285 284 284 283 282 281 281 281 280 280 280 280 279 278 278 279 279 278 278 277 277 277 276 277 278 278 278 278
270 271 273 274 275 277 279 281 282 284 285 285 285 286 286 286 286 285 284 283 282 281 281 281 280 280 280 279 278 278 278 278 278 278 277 276 276 275 276 276 276 277 277
269 270 272 273 275 277 278 281 282 283 284 284 285 285 286 286 287 286 286 284 282 281 281 281 281 281 280 279 279 278 278 278 277 278 277 277 276 275 275 275 275 275 276
268 269 272 274 274 276 278 279 281 283 283 284 284 286 286 285 286 286 286 285 284 283 282 281 281 281 280 279 278 279 278 278 278 278 277 276 276 276 275 274 274 273 273
269 271 272 274 275 276 278 278 279 282 283 284 284 285 286 286 286 286 285 286 285 284 283 282 282 281 280 279 278 278 279 280 279 279 278 277 275 275 274 273 273 272 271
270 271 272 274 276 277 278 278 279 281 282 282 283 285 286 287 288 288 287 287 286 284 284 283 282 282 282 281 279 278 279 279 279 279 279 278 277 275 274 272 272 271 270
273 274 275 276 277 278 279 279 279 281 281 281 283 284 285 287 288 288 288 288 287 285 284 283 283 282 282 283 281 280 279 279 280 280 278 277 277 276 274 273 272 270 270
275 276 277 278 278 278 279 279 280 281 282 282 283 284 285 285 287 288 288 288 287 286 285 284 283 282 282 282 282 280 278 278 279 279 279 278 277 276 275 274 272 270 269
274 275 277 278 277 277 278 279 280 281 283 284 285 285 286 286 287 287 288 288 288 287 287 285 283 281 281 281 281 281 280 279 279 279 280 278 277 276 275 274 273 272 271
274 275 277 277 277 279 279 280 281 283 285 286 287 287 288 288 288 288 287 288 288 288 287 285 283 282 281 282 281 281 280 279 278 279 280 280 278 277 276 274 273 273 273
275 275 276 278 278 278 280 282 284 285 286 288 288 288 289 289 289 289 289 289 289 288 287 286 285 282 282 282 281 280 280 279 279 278 278 279 278 278 276 275 274 274 274
275 275 276 278 279 279 280 282 284 285 287 288 289 289 289 290 289 289 290 290 289 289 287 285 285 284 283 281 280 279 279 279 279 279 278 278 277 278 277 275 275 275 275
276 277 278 280 280 281 282 283 284 285 287 289 289 290 290 289 289 289 290 290 289 288 287 285 283 282 282 281 280 279 279 279 279 279 278 278 277 277 278 277 276 275 275
276 277 279 280 281 283 284 284 285 285 286 287 288 289 289 289 289 289 290 290 290 289 287 286 284 282 281 281 280 279 279 279 278 278 277 278 278 278 278 279 277 276 276
276 277 279 281 282 283 284 285 285 286 286 287 289 290 290 289 289 290 290 290 291 290 289 287 285 283 282 281 280 279 279 278 278 278 277 278 278 277 278 278 278 278 277
277 277 279 280 281 283 283 284 285 285 286 287 288 289 289 289 289 290 290 290 290 290 290 288 286 284 284 282 281 280 279 279 279 279 279 278 279 278 277 278 278 279 278
279 278 279 280 281 282 283 284 285 285 286 287 287 288 289 289 289 289 290 290 290 290 290 289 287 286 284 283 283 281 281 281 280 280 279 278 277 278 278 278 278 277 277
280 280 281 281 282 283 283 284 284 285 286 287 287 288 288 289 289 289 289 289 289 290 290 289 288 287 286 284 283 282 282 282 283 282 281 280 278 278 278 278 278 277 277
280 281 282 282 283 283 284 285 285 285 286 287 287 287 288 288 289 289 289 289 289 289 289 288 287 287 286 284 284 283 283 283 283 283 282 282 281 280 280 279 279 278 278
280 281 282 283 283 284 284 285 285 285 286 287 287 288 288 288 289 289 289 288 288 288 288 287 286 286 286 284 284 283 283 283 283 283 283 283 282 281 281 280 280 280 280
280 281 281 282 284 284 284 285 285 286 286 287 287 287 288 288 288 288 288 288 288 288 288 287 286 285 285 285 284 284 284 284 283 283 283 283 283 282 282 282 281 281 280
280 280 281 282 282 283 283 284 285 285 286 286 286 286 287 287 287 287 287 287 287 287 287 286 286 285 286 285 285 285 284 284 284 283 283 283 283 284 284 283 282 281 281
280 280 281 281 282 282 282 283 284 284 285 285 285 285 286 286 286 286 287 287 287 287 287 286 286 287 287 286 285 284 285 285 285 285 284 284 284 284 285 285 283 282 281
280 281 281 281 282 282 282 282 283 283 284 284 284 285 285 286 286 286 286 287 287 286 286 286 286 286 286 285 284 283 284 285 286 286 286 286 285 285 285 285 284 283 283
280 280 281 282 282 282 282 282 282 282 283 283 284 284 285 285 286 286 286 286 286 286 285 285 285 285 285 284 284 284 284 285 286 286 287 287 286 285 286 286 285 285 284
Height
5819 5819 5820 5820 5820 5820 5820 5819 5818 5818 5817 5816 5815 5814 5813 5812 5811 5810 5809 5809 5808 5807 5806 5806 5805 5805 5804 5803 5802 5802 5801 5800 5800 5799 5799 5799 5798 5797 5797 5797 5796 5796 5795
5813 5814 5814 5814 5814 5814 5814 5813 5812 5812 5811 5810 5809 5808 5806 5805 5804 5803 5802 5801 5800 5799 5798 5798 5797 5796 5796 5795 5794 5793 5792 5792 5791 5791 5790 5790 5790 5789 5788 5788 5787 5787 5787
5808 5808 5808 5808 5808 5808 5807 5806 5806 5805 5804 5803 5802 5801 5800 5798 5797 5796 5795 5793 5792 5791 5790 5789 5789 5788 5787 5786 5785 5785 5784 5783 5782 5782 5781 5781 5780 5780 5780 5779 5778 5778 5777
5802 5802 5802 5802 5802 5801 5800 5800 5799 5798 5797 5796 5795 5794 5792 5791 5790 5788 5787 5785 5784 5783 5782 5781 5780 5779 5778 5777 5776 5776 5775 5774 5773 5772 5772 5771 5771 5770 5770 5770 5769 5768 5768
5795 5795 5795 5795 5794 5794 5794 5793 5792 5791 5790 5789 5788 5786 5785 5784 5782 5781 5779 5777 5776 5774 5773 5772 5771 5770 5769 5768 5767 5766 5765 5764 5763 5763 5762 5761 5760 5760 5760 5759 5759 5759 5758
5788 5788 5788 5788 5787 5787 5786 5785 5785 5784 5782 5781 5780 5779 5777 5775 5774 5772 5771 5769 5767 5766 5764 5763 5762 5760 5759 5758 5757 5756 5756 5755 5753 5752 5751 5750 5749 5749 5748 5748 5748 5748 5748
5781 5781 5781 5780 5780 5779 5778 5777 5776 5775 5774 5773 5772 5771 5769 5767 5765 5764 5762 5760 5758 5757 5755 5754 5752 5751 5750 5748 5747 5746 5746 5745 5743 5742 5741 5739 5738 5737 5737 5737 5737 5737 5738
5773 5773 5773 5772 5772 5771 5770 5769 5768 5767 5766 5764 5764 5762 5761 5760 5757 5755 5753 5751 5749 5747 5746 5744 5743 5742 5740 5739 5738 5736 5735 5734 5733 5731 5730 5728 5727 5726 5726 5726 5726 5726 5726
5766 5766 5765 5764 5764 5763 5762 5761 5759 5758 5757 5756 5754 5753 5752 5751 5749 5746 5744 5741 5739 5737 5736 5734 5733 5732 5730 5729 5728 5726 5725 5724 5722 5721 5720 5718 5717 5715 5715 5715 5714 5715 5715
5758 5758 5757 5757 5755 5754 5753 5752 5751 5750 5749 5747 5746 5744 5742 5740 5739 5738 5735 5732 5729 5727 5725 5724 5722 5721 5720 5718 5717 5716 5715 5714 5712 5711 5709 5708 5706 5705 5704 5704 5704 5704 5704
5750 5749 5749 5748 5747 5746 5745 5744 5742 5741 5740 5738 5736 5734 5732 5730 5728 5727 5726 5723 5720 5717 5715 5713 5712 5710 5709 5708 5707 5706 5705 5703 5702 5700 5699 5697 5696 5695 5694 5693 5693 5693 5693
5742 5741 5740 5739 5738 5737 5736 5734 5733 5732 5730 5729 5727 5725 5723 5721 5719 5716 5715 5713 5711 5708 5705 5703 5702 5700 5699 5697 5696 5695 5694 5693 5691 5690 5688 5686 5685 5684 5683 5683 5682 5682 5682
5733 5732 5731 5730 5729 5728 5727 5725 5724 5723 5721 5719 5717 5715 5713 5711 5709 5707 5705 5703 5701 5699 5696 5693 5691 5690 5688 5686 5685 5684 5683 5682 5680 5679 5677 5676 5675 5674 5673 5672 5671 5671 5671
5724 5724 5723 5722 5720 5719 5718 5716 5715 5713 5712 5710 5708 5706 5704 5702 5699 5697 5694 5692 5691 5689 5687 5684 5681 5679 5677 5675 5674 5673 5672 5670 5669 5668 5666 5665 5664 5663 5662 5661 5660 5659 5659
5715 5714 5714 5712 5711 5710 5708 5707 5706 5704 5702 5700 5698 5696 5694 5692 5689 5687 5684 5682 5680 5678 5676 5674 5671 5668 5666 5664 5663 5661 5660 5659 5657 5656 5655 5653 5652 5651 5650 5649 5648 5647 5647
5706 5705 5704 5703 5702 5700 5699 5697 5696 5694 5693 5691 5689 5686 5684 5682 5679 5677 5674 5671 5668 5665 5664 5662 5659 5656 5654 5653 5651 5649 5648 5646 5645 5644 5643 5641 5640 5639 5638 5637 5636 5635 5635
5696 5695 5694 5693 5692 5690 5689 5687 5686 5684 5682 5680 5678 5676 5674 5671 5669 5666 5663 5660 5657 5654 5652 5650 5647 5644 5642 5640 5638 5637 5635 5634 5632 5631 5630 5628 5627 5626 5625 5624 5623 5622 5622
5686 5685 5684 5683 5682 5680 5678 5677 5675 5673 5671 5669 5667 5665 5663 5660 5658 5655 5652 5649 5645 5642 5640 5638 5635 5633 5630 5628 5626 5625 5623 5621 5619 5618 5616 5615 5614 5613 5612 5611 5610 5609 5608
5676 5674 5673 5672 5671 5669 5667 5666 5664 5662 5660 5658 5656 5654 5651 5649 5646 5643 5640 5637 5634 5631 5627 5625 5624 5621 5619 5616 5614 5613 5611 5609 5607 5605 5603 5602 5601 5599 5598 5597 5596 5595 5594
5665 5663 5662 5661 5659 5658 5656 5654 5653 5651 5649 5646 5644 5641 5639 5637 5634 5631 5628 5625 5622 5619 5616 5613 5612 5610 5607 5605 5602 5600 5598 5596 5594 5592 5590 5588 5587 5586 5584 5584 5583 5582 5580
5653 5652 5651 5649 5647 5646 5644 5642 5641 5639 5637 5634 5632 5629 5627 5624 5621 5618 5615 5612 5609 5607 5604 5602 5600 5597 5595 5593 5590 5588 5586 5583 5581 5579 5577 5575 5574 5572 5570 5569 5568 5567 5566
5641 5640 5639 5637 5636 5634 5631 5630 5628 5626 5624 5622 5619 5616 5614 5611 5608 5605 5602 5599 5597 5594 5592 5589 5587 5585 5582 5580 5577 5575 5573 5571 5569 5567 5564 5562 5560 5558 5556 5555 5554 5552 5551
5629 5628 5626 5625 5623 5621 5619 5617 5615 5613 5611 5608 5606 5603 5601 5598 5595 5592 5589 5587 5584 5581 5578 5576 5574 5572 5569 5567 5564 5562 5559 5557 5555 5553 5551 5549 5546 5544 5542 5540 5539 5538 5537
5616 5615 5613 5611 5610 5608 5605 5603 5601 5599 5597 5594 5592 5589 5587 5585 5582 5579 5577 5574 5571 5568 5565 5563 5561 5559 5556 5553 5551 5549 5546 5544 5542 5539 5537 5536 5533 5531 5528 5525 5524 5523 5522
5602 5601 5599 5597 5596 5594 5591 5589 5587 5585 5583 5580 5578 5576 5573 5571 5568 5566 5563 5561 5558 5555 5552 5550 5548 5545 5543 5540 5538 5536 5533 5531 5530 5527 5524 5523 5521 5518 5515 5512 5510 5508 5507
5588 5587 5585 5583 5581 5579 5577 5574 5572 5571 5569 5566 5564 5562 5559 5557 5554 5551 5549 5547 5545 5542 5539 5537 5535 5532 5530 5527 5525 5523 5521 5519 5517 5515 5512 5510 5508 5505 5504 5500 5497 5495 5493